Weather History for Mt. Pocono, PA

Change the Weather History Date:

Tuesday, May 28, 2013

  Actual Average Record
Temperature  
Mean Temperature 50 °F 58 °F  
Max Temperature 56 °F 68 °F 86 °F (2012)
Min Temperature 43 °F 49 °F 30 °F (1983)
Degree Days  
Heating Degree Days 15 7  
Month to date heating degree days 307 300  
Since 1 July heating degree days 6752 6994  
Cooling Degree Days 0 1  
Month to date cooling degree days 13 10  
Year to date cooling degree days 14 14  
Moisture  
Dew Point 49 °F    
Average Humidity 83    
Maximum Humidity 100    
Minimum Humidity 66    
Precipitation  
Precipitation 0.66 in 0.16 in 1.53 in (2002)
Month to date precipitation 4.49 3.89  
Year to date precipitation 13.98 17.00  
Sea Level Pressure  
Sea Level Pressure 30.18 in    
Wind  
Wind Speed 4 mph (SE)    
Max Wind Speed 12 mph    
Max Gust Speed 15 mph    
Visibility 4 miles    
Events Fog , Rain    
T = Trace of Precipitation, MM = Missing Value Source: NWS Daily Summary

Daily Weather History Graph

Daily Weather History Graph

Search for Another Location

Airport:

Trip Planner

Search our weather history database for the weather conditions in past years. The results will help you decide how hot, cold, wet, or windy it might be!

Date:

Astronomy

May. 28, 2013 Rise Set
Actual Time 5:33 AM EDT 8:24 PM EDT
Civil Twilight 5:00 AM EDT 8:57 PM EDT
Nautical Twilight 4:19 AM EDT 9:38 PM EDT
Astronomical Twilight 3:31 AM EDT 10:26 PM EDT
Moon 11:45 PM EDT (5/28) 9:19 AM EDT (5/28)
Length of Visible Light 15h 57m
Length of Day
14h 51m
Waning Gibbous, 83% of the Moon is Illuminated
May 28
Waning Gibbous
May 31
Last Quarter
Jun 8
New
Jun 16
First Quarter
Jun 23
Full

Hourly Weather History & Observations

Time (EDT) Temp. Dew Point Humidity Pressure Visibility Wind Dir Wind Speed Gust Speed Precip Events Conditions
12:53 AM 48.9 °F 41.0 °F 74% 30.22 in 10.0 mi WNW 3.5 mph - N/A   Clear
1:53 AM 46.0 °F 41.0 °F 83% 30.22 in 10.0 mi Calm Calm - N/A   Clear
2:53 AM 45.0 °F 42.1 °F 90% 30.20 in 10.0 mi Calm Calm - N/A   Clear
3:53 AM 45.0 °F 42.1 °F 90% 30.20 in 10.0 mi Calm Calm - N/A   Clear
4:53 AM 45.0 °F 41.0 °F 86% 30.19 in 10.0 mi Calm Calm - N/A   Clear
5:53 AM 46.0 °F 42.1 °F 86% 30.19 in 10.0 mi Calm Calm - N/A   Clear
6:53 AM 48.9 °F 45.0 °F 86% 30.20 in 10.0 mi Calm Calm - N/A   Clear
7:53 AM 55.0 °F 45.0 °F 69% 30.19 in 10.0 mi SE 3.5 mph - N/A   Scattered Clouds
8:53 AM 55.9 °F 46.0 °F 69% 30.22 in 10.0 mi South 4.6 mph - 0.00 in Rain Light Rain
9:53 AM 54.0 °F 46.9 °F 77% 30.23 in 6.0 mi SSW 5.8 mph - 0.02 in Rain Light Rain
10:53 AM 52.0 °F 48.0 °F 86% 30.23 in 5.0 mi SSE 8.1 mph - 0.04 in Rain Light Rain
11:53 AM 52.0 °F 48.9 °F 89% 30.20 in 5.0 mi ESE 8.1 mph - 0.06 in Rain Light Rain
12:02 PM 51.8 °F 48.2 °F 88% 30.18 in 4.0 mi ESE 8.1 mph - 0.01 in Rain Light Rain
12:31 PM 51.8 °F 48.2 °F 88% 30.16 in 2.5 mi SE 9.2 mph - 0.06 in Rain Rain
12:53 PM 51.1 °F 48.9 °F 92% 30.18 in 2.0 mi SE 11.5 mph - 0.10 in Rain Light Rain
1:05 PM 50.0 °F 48.2 °F 94% 30.17 in 3.0 mi SE 9.2 mph - 0.01 in Rain Light Rain
1:13 PM 50.0 °F 48.2 °F 94% 30.18 in 2.0 mi SE 6.9 mph - 0.02 in Rain Light Rain
1:20 PM 50.0 °F 48.2 °F 94% 30.18 in 1.0 mi SE 6.9 mph - 0.06 in Rain Heavy Rain
1:53 PM 51.1 °F 48.9 °F 92% 30.18 in 1.8 mi ESE 10.4 mph - 0.16 in Rain Light Rain
2:04 PM 51.8 °F 50.0 °F 94% 30.17 in 0.5 mi Variable 5.8 mph - 0.01 in Fog , Rain Light Rain
2:43 PM 51.8 °F 50.0 °F 94% 30.17 in 1.5 mi East 4.6 mph - 0.08 in Rain Rain
2:53 PM 51.1 °F 50.0 °F 96% 30.20 in 2.0 mi East 5.8 mph - 0.09 in Rain Light Rain
3:01 PM 51.8 °F 50.0 °F 94% 30.18 in 1.5 mi East 4.6 mph - 0.00 in Rain Light Rain
3:12 PM 51.8 °F 50.0 °F 94% 30.18 in 0.2 mi ESE 5.8 mph - 0.01 in Fog , Rain Light Rain
3:32 PM 51.8 °F 50.0 °F 94% 30.17 in 1.0 mi East 6.9 mph - 0.08 in Rain Heavy Rain
3:41 PM 51.8 °F 50.0 °F 94% 30.17 in 3.0 mi SE 6.9 mph - 0.09 in Rain Light Rain
3:53 PM 52.0 °F 50.0 °F 93% 30.19 in 2.0 mi SE 4.6 mph - 0.10 in Rain Light Rain
4:43 PM 51.8 °F 51.8 °F 100% 30.16 in 0.8 mi East 6.9 mph - 0.04 in Rain Light Rain
4:53 PM 52.0 °F 51.1 °F 97% 30.17 in 0.2 mi East 8.1 mph - 0.04 in Fog , Rain Light Rain
5:53 PM 52.0 °F 52.0 °F 100% 30.17 in 0.2 mi ESE 6.9 mph - 0.02 in Fog , Rain Light Rain
6:53 PM 53.1 °F 52.0 °F 96% 30.17 in 0.2 mi East 4.6 mph - 0.00 in Fog Fog
7:53 PM 53.1 °F 52.0 °F 96% 30.14 in 0.2 mi ESE 4.6 mph - 0.01 in Fog Fog
8:53 PM 53.1 °F 52.0 °F 96% 30.14 in 0.2 mi Calm Calm - N/A Fog Fog
9:53 PM 53.1 °F 52.0 °F 96% 30.14 in 0.2 mi Calm Calm - 0.02 in Fog Fog
10:53 PM 54.0 °F 53.1 °F 97% 30.14 in 0.2 mi Calm Calm - N/A Fog Fog
11:28 PM 53.6 °F 53.6 °F 100% 30.12 in 0.5 mi Calm Calm - N/A Fog Fog
11:49 PM 53.6 °F 53.6 °F 100% 30.13 in 0.2 mi SSE 4.6 mph - N/A Fog Fog
11:53 PM 53.1 °F 52.0 °F 96% 30.14 in 0.2 mi SE 4.6 mph - N/A Fog Fog